QPF
0.00 0.00 0.00 0.00 0.00 0.00 0.00 0.00 0.02 0.07 0.04 0.02 0.02 0.01 0.01 0.01 0.01 0.01 0.00 0.00 0.00 0.00 0.00 0.00 0.00 0.00 0.00 0.00 0.00 0.00 0.00 0.00 0.00 0.01 0.01 0.01 0.01 0.01 0.01 0.01 0.01 0.01 0.01 0.00 0.00 0.00 0.00 0.00 0.00
0.00 0.00 0.00 0.00 0.00 0.00 0.00 0.00 0.01 0.03 0.03 0.02 0.01 0.01 0.01 0.01 0.00 0.00 0.00 0.00 0.00 0.00 0.00 0.00 0.00 0.00 0.00 0.00 0.00 0.00 0.00 0.00 0.00 0.01 0.01 0.01 0.01 0.01 0.01 0.01 0.01 0.01 0.01 0.01 0.00 0.00 0.00 0.00 0.00
0.00 0.00 0.00 0.00 0.00 0.00 0.00 0.01 0.01 0.01 0.01 0.01 0.01 0.01 0.01 0.01 0.00 0.00 0.00 0.00 0.00 0.00 0.00 0.00 0.00 0.00 0.00 0.00 0.00 0.00 0.00 0.00 0.01 0.01 0.01 0.01 0.01 0.01 0.01 0.01 0.01 0.01 0.01 0.00 0.00 0.00 0.00 0.00 0.00
0.00 0.00 0.00 0.00 0.00 0.00 0.00 0.00 0.00 0.00 0.01 0.01 0.01 0.01 0.02 0.02 0.01 0.00 0.00 0.00 0.00 0.00 0.00 0.00 0.00 0.00 0.00 0.00 0.00 0.00 0.00 0.01 0.01 0.01 0.01 0.01 0.01 0.01 0.01 0.01 0.01 0.01 0.00 0.00 0.00 0.00 0.00 0.00 0.00
0.00 0.00 0.00 0.00 0.00 0.00 0.00 0.00 0.00 0.00 0.00 0.00 0.00 0.01 0.01 0.01 0.00 0.00 0.00 0.00 0.00 0.00 0.00 0.00 0.00 0.00 0.00 0.00 0.00 0.00 0.00 0.01 0.01 0.01 0.01 0.01 0.01 0.01 0.01 0.01 0.01 0.01 0.00 0.00 0.00 0.00 0.00 0.00 0.00
0.00 0.00 0.00 0.00 0.00 0.00 0.00 0.00 0.00 0.00 0.00 0.00 0.00 0.00 0.01 0.01 0.00 0.00 0.00 0.00 0.00 0.00 0.00 0.00 0.00 0.00 0.00 0.00 0.00 0.00 0.00 0.01 0.00 0.00 0.01 0.01 0.01 0.01 0.01 0.00 0.00 0.00 0.00 0.00 0.00 0.00 0.00 0.00 0.00
0.00 0.00 0.00 0.00 0.00 0.00 0.00 0.00 0.00 0.00 0.00 0.00 0.00 0.01 0.01 0.01 0.00 0.00 0.00 0.00 0.00 0.00 0.00 0.00 0.00 0.00 0.00 0.00 0.00 0.00 0.00 0.00 0.00 0.00 0.00 0.00 0.00 0.00 0.00 0.00 0.00 0.00 0.00 0.00 0.00 0.00 0.00 0.00 0.00
0.00 0.00 0.00 0.00 0.00 0.00 0.00 0.00 0.00 0.00 0.00 0.00 0.01 0.01 0.01 0.01 0.01 0.00 0.00 0.00 0.00 0.00 0.00 0.00 0.00 0.00 0.00 0.00 0.00 0.00 0.00 0.00 0.00 0.00 0.00 0.00 0.00 0.00 0.00 0.00 0.00 0.00 0.00 0.00 0.00 0.00 0.00 0.00 0.00
0.00 0.00 0.00 0.00 0.00 0.00 0.00 0.00 0.00 0.00 0.00 0.00 0.01 0.01 0.01 0.01 0.01 0.00 0.00 0.00 0.00 0.00 0.00 0.00 0.00 0.00 0.00 0.00 0.00 0.00 0.00 0.00 0.00 0.00 0.00 0.00 0.00 0.00 0.00 0.00 0.00 0.00 0.00 0.00 0.00 0.00 0.00 0.00 0.00
0.00 0.00 0.00 0.00 0.00 0.00 0.00 0.00 0.00 0.00 0.00 0.00 0.01 0.00 0.01 0.00 0.00 0.00 0.00 0.00 0.00 0.00 0.00 0.00 0.00 0.00 0.00 0.00 0.00 0.00 0.00 0.00 0.00 0.00 0.00 0.00 0.00 0.00 0.00 0.00 0.00 0.00 0.00 0.00 0.00 0.00 0.00 0.00 0.00
0.00 0.00 0.00 0.00 0.00 0.00 0.00 0.00 0.00 0.00 0.00 0.00 0.01 0.01 0.01 0.00 0.00 0.01 0.01 0.01 0.01 0.00 0.00 0.00 0.00 0.00 0.00 0.00 0.00 0.00 0.00 0.00 0.00 0.00 0.00 0.00 0.00 0.00 0.00 0.00 0.01 0.01 0.00 0.00 0.01 0.01 0.00 0.01 0.01
0.00 0.00 0.00 0.00 0.00 0.00 0.00 0.00 0.00 0.00 0.00 0.00 0.00 0.01 0.02 0.01 0.01 0.02 0.01 0.01 0.01 0.01 0.00 0.00 0.00 0.00 0.00 0.00 0.00 0.00 0.00 0.00 0.00 0.00 0.00 0.00 0.00 0.01 0.01 0.01 0.01 0.01 0.01 0.01 0.02 0.02 0.02 0.02 0.02
0.00 0.00 0.00 0.00 0.00 0.00 0.00 0.00 0.00 0.00 0.00 0.00 0.00 0.01 0.03 0.02 0.02 0.03 0.03 0.02 0.02 0.02 0.01 0.01 0.00 0.00 0.00 0.00 0.00 0.00 0.00 0.00 0.00 0.00 0.00 0.00 0.00 0.01 0.01 0.01 0.01 0.02 0.03 0.04 0.04 0.03 0.03 0.03 0.04
0.00 0.00 0.00 0.00 0.00 0.00 0.00 0.00 0.00 0.00 0.00 0.00 0.00 0.03 0.06 0.02 0.02 0.03 0.02 0.03 0.02 0.02 0.02 0.01 0.01 0.00 0.00 0.00 0.00 0.00 0.00 0.00 0.00 0.00 0.00 0.00 0.00 0.00 0.01 0.01 0.01 0.01 0.02 0.04 0.11 0.10 0.07 0.04 0.04
0.00 0.00 0.00 0.00 0.00 0.00 0.00 0.00 0.00 0.00 0.00 0.00 0.00 0.03 0.04 0.03 0.03 0.05 0.04 0.03 0.02 0.03 0.03 0.02 0.01 0.00 0.00 0.00 0.00 0.00 0.00 0.00 0.01 0.01 0.01 0.00 0.01 0.01 0.01 0.01 0.01 0.01 0.01 0.02 0.03 0.05 0.04 0.03 0.04
0.00 0.00 0.00 0.00 0.00 0.00 0.00 0.00 0.00 0.00 0.00 0.00 0.00 0.00 0.02 0.02 0.03 0.05 0.07 0.06 0.05 0.04 0.04 0.03 0.03 0.01 0.01 0.01 0.01 0.01 0.01 0.00 0.01 0.01 0.02 0.01 0.01 0.01 0.01 0.01 0.01 0.01 0.01 0.02 0.01 0.01 0.02 0.03 0.04
0.00 0.00 0.00 0.00 0.00 0.00 0.00 0.00 0.00 0.00 0.00 0.00 0.00 0.00 0.00 0.01 0.01 0.02 0.06 0.09 0.13 0.12 0.07 0.07 0.09 0.06 0.03 0.02 0.02 0.01 0.01 0.01 0.01 0.01 0.01 0.01 0.02 0.02 0.01 0.01 0.01 0.01 0.01 0.02 0.02 0.03 0.05 0.04 0.03
0.00 0.00 0.00 0.00 0.00 0.00 0.00 0.00 0.00 0.00 0.00 0.00 0.00 0.00 0.00 0.00 0.01 0.03 0.04 0.08 0.13 0.10 0.10 0.16 0.14 0.09 0.07 0.04 0.04 0.03 0.02 0.02 0.02 0.02 0.02 0.02 0.03 0.02 0.03 0.03 0.03 0.04 0.05 0.05 0.04 0.04 0.04 0.03 0.02
0.00 0.00 0.00 0.00 0.00 0.00 0.00 0.00 0.00 0.00 0.00 0.00 0.00 0.00 0.00 0.00 0.02 0.04 0.05 0.08 0.08 0.07 0.07 0.09 0.11 0.07 0.06 0.05 0.05 0.05 0.04 0.04 0.05 0.04 0.04 0.04 0.05 0.05 0.06 0.06 0.07 0.06 0.06 0.06 0.05 0.04 0.03 0.02 0.02
0.00 0.00 0.00 0.00 0.00 0.00 0.00 0.00 0.00 0.00 0.00 0.00 0.00 0.00 0.00 0.01 0.02 0.04 0.07 0.11 0.10 0.10 0.12 0.08 0.08 0.08 0.07 0.08 0.09 0.09 0.09 0.08 0.08 0.07 0.07 0.08 0.09 0.10 0.10 0.09 0.08 0.07 0.06 0.05 0.03 0.02 0.02 0.03 0.02
0.00 0.00 0.00 0.00 0.00 0.00 0.00 0.00 0.00 0.00 0.00 0.00 0.00 0.00 0.00 0.01 0.03 0.05 0.08 0.15 0.15 0.14 0.14 0.13 0.15 0.16 0.17 0.17 0.18 0.18 0.15 0.14 0.15 0.15 0.16 0.17 0.16 0.15 0.14 0.11 0.09 0.07 0.05 0.05 0.05 0.03 0.02 0.02 0.02
0.00 0.00 0.00 0.00 0.00 0.00 0.00 0.00 0.00 0.00 0.00 0.00 0.00 0.00 0.01 0.01 0.01 0.04 0.08 0.16 0.23 0.20 0.20 0.22 0.27 0.34 0.38 0.38 0.36 0.32 0.27 0.25 0.24 0.24 0.23 0.21 0.18 0.16 0.16 0.14 0.11 0.10 0.09 0.07 0.05 0.03 0.02 0.02 0.02
0.00 0.00 0.00 0.00 0.00 0.00 0.00 0.00 0.00 0.01 0.00 0.00 0.00 0.01 0.01 0.01 0.02 0.03 0.05 0.08 0.14 0.19 0.29 0.35 0.37 0.42 0.45 0.45 0.47 0.45 0.41 0.38 0.38 0.34 0.26 0.22 0.21 0.21 0.18 0.14 0.11 0.09 0.07 0.05 0.03 0.03 0.02 0.02 0.01
0.00 0.00 0.00 0.00 0.00 0.00 0.00 0.00 0.00 0.01 0.01 0.01 0.01 0.01 0.01 0.01 0.02 0.03 0.04 0.05 0.08 0.12 0.21 0.30 0.34 0.46 0.53 0.52 0.50 0.51 0.50 0.47 0.43 0.35 0.28 0.27 0.25 0.21 0.17 0.14 0.11 0.07 0.05 0.03 0.02 0.01 0.01 0.01 0.01
0.00 0.00 0.00 0.00 0.00 0.00 0.00 0.00 0.03 0.03 0.02 0.02 0.02 0.02 0.03 0.02 0.02 0.03 0.04 0.06 0.08 0.12 0.21 0.30 0.35 0.38 0.44 0.44 0.42 0.47 0.47 0.43 0.39 0.35 0.30 0.25 0.21 0.17 0.13 0.09 0.07 0.04 0.02 0.01 0.01 0.01 0.00 0.00 0.00
0.00 0.00 0.00 0.00 0.00 0.00 0.00 0.03 0.07 0.05 0.04 0.03 0.03 0.03 0.04 0.03 0.03 0.03 0.04 0.05 0.06 0.09 0.13 0.21 0.24 0.24 0.24 0.27 0.28 0.27 0.27 0.27 0.25 0.24 0.21 0.16 0.13 0.09 0.06 0.03 0.02 0.01 0.00 0.00 0.00 0.00 0.00 0.00 0.00
0.00 0.00 0.00 0.00 0.00 0.00 0.01 0.07 0.14 0.12 0.09 0.07 0.05 0.04 0.04 0.04 0.03 0.03 0.03 0.04 0.05 0.06 0.07 0.09 0.10 0.10 0.10 0.12 0.15 0.15 0.16 0.15 0.14 0.13 0.09 0.06 0.05 0.03 0.02 0.01 0.01 0.00 0.00 0.00 0.00 0.00 0.00 0.00 0.00
0.00 0.00 0.00 0.00 0.00 0.00 0.01 0.07 0.14 0.17 0.16 0.13 0.10 0.07 0.05 0.04 0.04 0.03 0.03 0.03 0.04 0.04 0.04 0.04 0.05 0.06 0.07 0.09 0.11 0.11 0.10 0.10 0.09 0.07 0.05 0.04 0.02 0.02 0.01 0.01 0.00 0.00 0.00 0.00 0.00 0.00 0.00 0.00 0.00
0.00 0.00 0.00 0.00 0.00 0.00 0.01 0.06 0.13 0.20 0.21 0.17 0.14 0.10 0.06 0.04 0.04 0.03 0.03 0.03 0.03 0.03 0.03 0.03 0.04 0.05 0.07 0.08 0.09 0.09 0.08 0.07 0.05 0.04 0.03 0.02 0.02 0.01 0.00 0.00 0.00 0.00 0.00 0.00 0.00 0.00 0.00 0.00 0.00
0.00 0.00 0.00 0.00 0.00 0.00 0.01 0.09 0.17 0.29 0.31 0.28 0.25 0.17 0.10 0.06 0.05 0.05 0.04 0.03 0.03 0.03 0.04 0.04 0.05 0.06 0.06 0.06 0.06 0.06 0.05 0.05 0.03 0.03 0.02 0.01 0.01 0.01 0.00 0.00 0.00 0.00 0.00 0.00 0.00 0.00 0.00 0.00 0.00
MSLP
1010.90 1011.78 1012.94 1014.19 1015.35 1016.23 1016.72 1016.76 1016.39 1015.70 1014.86 1014.01 1013.30 1012.80 1012.55 1012.50 1012.58 1012.72 1012.82 1012.86 1012.83 1012.75 1012.69 1012.69 1012.79 1013.00 1013.30 1013.66 1014.02 1014.35 1014.63 1014.86 1015.07 1015.29 1015.53 1015.81 1016.13 1016.46 1016.77 1017.03 1017.24 1017.38 1017.48 1017.57 1017.65 1017.76 1017.88 1018.03 1018.16
1011.44 1012.50 1013.72 1014.89 1015.85 1016.43 1016.56 1016.23 1015.53 1014.59 1013.59 1012.69 1012.00 1011.58 1011.42 1011.48 1011.67 1011.89 1012.08 1012.20 1012.25 1012.28 1012.32 1012.43 1012.62 1012.91 1013.27 1013.66 1014.03 1014.37 1014.66 1014.91 1015.14 1015.38 1015.64 1015.94 1016.26 1016.57 1016.86 1017.09 1017.27 1017.39 1017.48 1017.55 1017.64 1017.74 1017.87 1018.01 1018.15
1012.17 1013.35 1014.56 1015.60 1016.29 1016.52 1016.26 1015.57 1014.56 1013.42 1012.31 1011.40 1010.77 1010.47 1010.44 1010.62 1010.92 1011.23 1011.48 1011.67 1011.80 1011.90 1012.03 1012.23 1012.51 1012.86 1013.26 1013.68 1014.06 1014.40 1014.69 1014.95 1015.18 1015.43 1015.70 1015.99 1016.29 1016.58 1016.84 1017.04 1017.19 1017.30 1017.38 1017.46 1017.56 1017.68 1017.83 1017.97 1018.11
1013.04 1014.27 1015.40 1016.23 1016.62 1016.50 1015.88 1014.86 1013.61 1012.32 1011.17 1010.31 1009.79 1009.62 1009.74 1010.04 1010.44 1010.82 1011.13 1011.37 1011.55 1011.71 1011.91 1012.16 1012.50 1012.90 1013.33 1013.75 1014.14 1014.47 1014.74 1014.99 1015.22 1015.46 1015.72 1015.99 1016.27 1016.53 1016.76 1016.94 1017.07 1017.17 1017.26 1017.36 1017.48 1017.63 1017.78 1017.94 1018.09
1013.93 1015.13 1016.12 1016.71 1016.79 1016.34 1015.42 1014.16 1012.75 1011.40 1010.28 1009.51 1009.13 1009.10 1009.36 1009.78 1010.26 1010.69 1011.05 1011.32 1011.53 1011.73 1011.97 1012.27 1012.64 1013.05 1013.48 1013.88 1014.24 1014.55 1014.80 1015.02 1015.24 1015.47 1015.72 1015.99 1016.25 1016.49 1016.70 1016.85 1016.98 1017.08 1017.18 1017.29 1017.44 1017.60 1017.77 1017.94 1018.09
1014.70 1015.80 1016.59 1016.92 1016.73 1016.01 1014.87 1013.47 1012.00 1010.68 1009.66 1009.03 1008.80 1008.92 1009.29 1009.79 1010.32 1010.79 1011.17 1011.46 1011.70 1011.93 1012.20 1012.52 1012.89 1013.29 1013.69 1014.06 1014.37 1014.63 1014.85 1015.05 1015.26 1015.49 1015.75 1016.01 1016.27 1016.50 1016.69 1016.84 1016.96 1017.05 1017.16 1017.29 1017.44 1017.61 1017.79 1017.96 1018.10
1015.23 1016.15 1016.72 1016.81 1016.38 1015.48 1014.23 1012.80 1011.38 1010.17 1009.29 1008.81 1008.73 1008.96 1009.41 1009.97 1010.52 1011.00 1011.38 1011.69 1011.95 1012.21 1012.50 1012.82 1013.19 1013.56 1013.91 1014.21 1014.47 1014.68 1014.86 1015.05 1015.26 1015.51 1015.78 1016.07 1016.34 1016.58 1016.77 1016.92 1017.02 1017.11 1017.21 1017.33 1017.48 1017.64 1017.81 1017.96 1018.09
1015.42 1016.13 1016.46 1016.34 1015.75 1014.75 1013.49 1012.13 1010.84 1009.80 1009.10 1008.78 1008.81 1009.12 1009.60 1010.16 1010.70 1011.16 1011.55 1011.87 1012.16 1012.45 1012.76 1013.10 1013.45 1013.78 1014.08 1014.32 1014.51 1014.67 1014.83 1015.01 1015.23 1015.51 1015.82 1016.15 1016.45 1016.71 1016.91 1017.05 1017.15 1017.22 1017.30 1017.40 1017.52 1017.66 1017.81 1017.93 1018.04
1015.27 1015.75 1015.86 1015.57 1014.88 1013.88 1012.69 1011.48 1010.38 1009.54 1009.01 1008.82 1008.93 1009.27 1009.73 1010.25 1010.74 1011.18 1011.56 1011.90 1012.23 1012.57 1012.92 1013.28 1013.62 1013.92 1014.16 1014.34 1014.48 1014.59 1014.73 1014.91 1015.17 1015.48 1015.85 1016.22 1016.57 1016.85 1017.07 1017.21 1017.29 1017.34 1017.40 1017.46 1017.55 1017.66 1017.77 1017.86 1017.94
1014.83 1015.09 1015.02 1014.60 1013.88 1012.94 1011.89 1010.87 1009.98 1009.34 1008.97 1008.87 1009.01 1009.32 1009.72 1010.16 1010.59 1010.99 1011.36 1011.73 1012.12 1012.51 1012.92 1013.31 1013.65 1013.94 1014.14 1014.27 1014.36 1014.45 1014.57 1014.77 1015.05 1015.42 1015.83 1016.25 1016.64 1016.96 1017.18 1017.32 1017.40 1017.43 1017.46 1017.49 1017.55 1017.63 1017.71 1017.78 1017.83
1014.23 1014.30 1014.08 1013.59 1012.88 1012.04 1011.16 1010.34 1009.66 1009.18 1008.92 1008.88 1008.99 1009.23 1009.54 1009.87 1010.22 1010.58 1010.96 1011.37 1011.81 1012.28 1012.75 1013.19 1013.56 1013.84 1014.03 1014.13 1014.20 1014.27 1014.39 1014.60 1014.91 1015.31 1015.76 1016.22 1016.63 1016.97 1017.21 1017.36 1017.43 1017.46 1017.47 1017.49 1017.53 1017.59 1017.66 1017.71 1017.75
1013.61 1013.53 1013.21 1012.68 1012.01 1011.28 1010.56 1009.92 1009.40 1009.05 1008.86 1008.80 1008.86 1009.00 1009.18 1009.41 1009.68 1010.01 1010.39 1010.84 1011.35 1011.90 1012.44 1012.94 1013.35 1013.65 1013.84 1013.95 1014.01 1014.08 1014.20 1014.42 1014.75 1015.16 1015.63 1016.10 1016.53 1016.89 1017.14 1017.30 1017.38 1017.42 1017.44 1017.47 1017.52 1017.59 1017.66 1017.72 1017.76
1013.12 1012.93 1012.53 1011.99 1011.37 1010.74 1010.14 1009.63 1009.22 1008.93 1008.75 1008.65 1008.61 1008.64 1008.71 1008.84 1009.05 1009.34 1009.74 1010.24 1010.81 1011.43 1012.04 1012.60 1013.05 1013.39 1013.61 1013.74 1013.82 1013.91 1014.05 1014.28 1014.60 1015.01 1015.47 1015.93 1016.36 1016.71 1016.97 1017.15 1017.26 1017.34 1017.40 1017.47 1017.55 1017.65 1017.75 1017.84 1017.90
1012.85 1012.57 1012.13 1011.58 1010.99 1010.42 1009.90 1009.45 1009.09 1008.80 1008.58 1008.41 1008.28 1008.20 1008.17 1008.23 1008.38 1008.67 1009.08 1009.61 1010.23 1010.90 1011.57 1012.18 1012.69 1013.08 1013.35 1013.53 1013.66 1013.78 1013.94 1014.18 1014.49 1014.88 1015.31 1015.74 1016.14 1016.48 1016.75 1016.96 1017.12 1017.25 1017.37 1017.51 1017.65 1017.81 1017.95 1018.08 1018.18
1012.80 1012.47 1011.98 1011.42 1010.84 1010.30 1009.80 1009.36 1008.99 1008.66 1008.37 1008.11 1007.89 1007.72 1007.63 1007.64 1007.77 1008.05 1008.48 1009.02 1009.67 1010.37 1011.06 1011.71 1012.27 1012.72 1013.06 1013.31 1013.51 1013.69 1013.89 1014.14 1014.45 1014.80 1015.18 1015.56 1015.93 1016.25 1016.53 1016.77 1016.99 1017.19 1017.40 1017.61 1017.83 1018.05 1018.25 1018.41 1018.55
1012.93 1012.54 1012.03 1011.45 1010.87 1010.31 1009.80 1009.33 1008.90 1008.51 1008.14 1007.80 1007.52 1007.29 1007.16 1007.15 1007.28 1007.56 1007.98 1008.52 1009.16 1009.84 1010.54 1011.20 1011.79 1012.30 1012.72 1013.07 1013.36 1013.63 1013.89 1014.17 1014.47 1014.79 1015.13 1015.46 1015.78 1016.08 1016.37 1016.65 1016.92 1017.20 1017.49 1017.78 1018.08 1018.35 1018.60 1018.80 1018.96
1013.11 1012.69 1012.16 1011.58 1010.99 1010.41 1009.87 1009.35 1008.85 1008.39 1007.95 1007.56 1007.23 1006.99 1006.85 1006.84 1006.97 1007.24 1007.64 1008.15 1008.73 1009.36 1010.01 1010.66 1011.26 1011.83 1012.34 1012.79 1013.20 1013.58 1013.92 1014.25 1014.57 1014.87 1015.16 1015.45 1015.73 1016.02 1016.31 1016.62 1016.94 1017.29 1017.65 1018.01 1018.36 1018.68 1018.96 1019.18 1019.35
1013.22 1012.81 1012.29 1011.73 1011.15 1010.57 1010.00 1009.44 1008.89 1008.37 1007.89 1007.46 1007.12 1006.89 1006.77 1006.78 1006.92 1007.16 1007.51 1007.94 1008.43 1008.96 1009.53 1010.12 1010.73 1011.33 1011.92 1012.49 1013.03 1013.52 1013.97 1014.37 1014.72 1015.02 1015.30 1015.55 1015.81 1016.08 1016.37 1016.70 1017.07 1017.47 1017.88 1018.28 1018.66 1019.01 1019.29 1019.52 1019.68
1013.18 1012.80 1012.35 1011.85 1011.32 1010.78 1010.22 1009.65 1009.09 1008.55 1008.05 1007.63 1007.31 1007.10 1007.01 1007.04 1007.16 1007.37 1007.64 1007.95 1008.31 1008.71 1009.16 1009.66 1010.23 1010.85 1011.50 1012.18 1012.84 1013.47 1014.03 1014.52 1014.92 1015.25 1015.52 1015.76 1016.00 1016.26 1016.56 1016.91 1017.30 1017.72 1018.15 1018.58 1018.96 1019.30 1019.58 1019.80 1019.96
1012.94 1012.65 1012.31 1011.93 1011.52 1011.07 1010.58 1010.06 1009.52 1009.00 1008.52 1008.12 1007.84 1007.67 1007.61 1007.65 1007.76 1007.90 1008.06 1008.24 1008.43 1008.66 1008.96 1009.35 1009.85 1010.46 1011.15 1011.91 1012.68 1013.43 1014.10 1014.68 1015.14 1015.51 1015.80 1016.05 1016.29 1016.55 1016.86 1017.21 1017.61 1018.04 1018.47 1018.88 1019.26 1019.57 1019.83 1020.03 1020.18
1012.52 1012.37 1012.20 1012.01 1011.78 1011.48 1011.12 1010.69 1010.23 1009.76 1009.33 1008.98 1008.74 1008.61 1008.58 1008.62 1008.69 1008.75 1008.80 1008.81 1008.83 1008.88 1009.01 1009.27 1009.67 1010.24 1010.94 1011.75 1012.59 1013.43 1014.19 1014.85 1015.39 1015.81 1016.13 1016.40 1016.66 1016.93 1017.24 1017.59 1017.99 1018.40 1018.82 1019.20 1019.54 1019.83 1020.06 1020.25 1020.40
1012.00 1012.04 1012.10 1012.14 1012.13 1012.04 1011.84 1011.55 1011.19 1010.80 1010.44 1010.15 1009.96 1009.87 1009.85 1009.88 1009.90 1009.88 1009.80 1009.67 1009.52 1009.39 1009.36 1009.47 1009.76 1010.26 1010.94 1011.75 1012.63 1013.52 1014.34 1015.06 1015.65 1016.12 1016.49 1016.79 1017.07 1017.35 1017.67 1018.03 1018.41 1018.81 1019.19 1019.54 1019.85 1020.10 1020.31 1020.49 1020.64
1011.50 1011.76 1012.06 1012.35 1012.58 1012.70 1012.69 1012.54 1012.30 1012.01 1011.73 1011.50 1011.35 1011.29 1011.29 1011.30 1011.28 1011.19 1011.01 1010.75 1010.45 1010.17 1009.99 1009.96 1010.15 1010.56 1011.18 1011.96 1012.84 1013.73 1014.58 1015.33 1015.95 1016.46 1016.86 1017.19 1017.49 1017.80 1018.13 1018.49 1018.87 1019.24 1019.60 1019.91 1020.18 1020.41 1020.60 1020.78 1020.95
1011.12 1011.58 1012.12 1012.65 1013.10 1013.42 1013.57 1013.57 1013.44 1013.23 1013.02 1012.85 1012.75 1012.71 1012.72 1012.72 1012.68 1012.54 1012.29 1011.94 1011.55 1011.16 1010.87 1010.74 1010.84 1011.16 1011.70 1012.42 1013.24 1014.11 1014.94 1015.68 1016.31 1016.83 1017.26 1017.62 1017.95 1018.28 1018.62 1018.98 1019.35 1019.71 1020.04 1020.32 1020.57 1020.77 1020.96 1021.13 1021.32
1010.93 1011.58 1012.30 1013.01 1013.63 1014.09 1014.37 1014.47 1014.43 1014.29 1014.14 1014.02 1013.96 1013.96 1013.99 1014.00 1013.96 1013.80 1013.53 1013.16 1012.72 1012.29 1011.94 1011.75 1011.77 1012.02 1012.48 1013.12 1013.88 1014.68 1015.45 1016.16 1016.77 1017.28 1017.71 1018.09 1018.44 1018.79 1019.14 1019.51 1019.87 1020.21 1020.52 1020.78 1021.01 1021.20 1021.36 1021.54 1021.73
1011.00 1011.76 1012.59 1013.40 1014.11 1014.64 1014.98 1015.14 1015.14 1015.06 1014.96 1014.88 1014.87 1014.91 1014.98 1015.03 1015.01 1014.89 1014.64 1014.29 1013.88 1013.46 1013.12 1012.92 1012.91 1013.10 1013.50 1014.06 1014.73 1015.44 1016.14 1016.79 1017.35 1017.84 1018.26 1018.63 1018.99 1019.35 1019.71 1020.07 1020.43 1020.76 1021.05 1021.29 1021.50 1021.67 1021.82 1021.98 1022.16
1011.29 1012.10 1012.96 1013.77 1014.47 1015.00 1015.33 1015.49 1015.51 1015.46 1015.40 1015.38 1015.42 1015.52 1015.65 1015.76 1015.81 1015.75 1015.58 1015.31 1014.97 1014.63 1014.34 1014.17 1014.17 1014.35 1014.71 1015.20 1015.79 1016.41 1017.02 1017.59 1018.09 1018.52 1018.92 1019.27 1019.62 1019.98 1020.34 1020.69 1021.04 1021.35 1021.63 1021.85 1022.03 1022.18 1022.31 1022.44 1022.59
1011.79 1012.56 1013.36 1014.09 1014.70 1015.15 1015.42 1015.54 1015.56 1015.54 1015.52 1015.56 1015.68 1015.85 1016.06 1016.25 1016.38 1016.42 1016.35 1016.19 1015.97 1015.74 1015.55 1015.46 1015.51 1015.71 1016.05 1016.49 1017.01 1017.55 1018.07 1018.55 1018.98 1019.36 1019.70 1020.03 1020.36 1020.69 1021.03 1021.37 1021.70 1022.00 1022.24 1022.44 1022.60 1022.72 1022.81 1022.90 1023.00
1012.42 1013.10 1013.77 1014.36 1014.82 1015.14 1015.31 1015.38 1015.39 1015.39 1015.44 1015.56 1015.76 1016.02 1016.32 1016.60 1016.83 1016.97 1017.02 1016.98 1016.89 1016.79 1016.73 1016.74 1016.87 1017.11 1017.46 1017.88 1018.34 1018.81 1019.25 1019.65 1020.00 1020.31 1020.60 1020.88 1021.17 1021.48 1021.79 1022.10 1022.40 1022.66 1022.89 1023.06 1023.18 1023.26 1023.31 1023.35 1023.39
1013.13 1013.68 1014.18 1014.59 1014.88 1015.05 1015.13 1015.15 1015.16 1015.20 1015.33 1015.54 1015.84 1016.20 1016.59 1016.96 1017.27 1017.51 1017.66 1017.74 1017.77 1017.80 1017.86 1017.99 1018.20 1018.50 1018.87 1019.28 1019.71 1020.12 1020.49 1020.82 1021.09 1021.34 1021.57 1021.80 1022.04 1022.30 1022.57 1022.85 1023.11 1023.34 1023.52 1023.66 1023.75 1023.79 1023.80 1023.78 1023.74
Thickness
5798 5802 5803 5791 5766 5743 5743 5761 5774 5779 5785 5801 5809 5806 5801 5796 5788 5783 5807 5813 5808 5801 5797 5794 5793 5791 5789 5786 5784 5781 5779 5777 5774 5772 5771 5769 5767 5766 5763 5761 5759 5757 5755 5753 5751 5749 5748 5746 5745
5794 5797 5791 5772 5744 5726 5740 5768 5777 5787 5801 5810 5811 5810 5804 5800 5811 5806 5807 5809 5807 5801 5796 5793 5792 5790 5787 5785 5782 5780 5777 5775 5772 5770 5768 5767 5765 5763 5761 5759 5757 5755 5753 5751 5749 5747 5746 5744 5743
5789 5789 5770 5752 5738 5731 5748 5774 5784 5799 5811 5810 5805 5810 5807 5804 5812 5809 5810 5809 5804 5799 5795 5792 5790 5789 5786 5784 5781 5778 5776 5774 5771 5769 5767 5765 5763 5761 5759 5757 5755 5753 5751 5749 5747 5745 5744 5742 5740
5778 5768 5757 5739 5737 5751 5765 5780 5791 5797 5807 5813 5807 5801 5809 5822 5821 5816 5811 5808 5802 5797 5794 5791 5789 5788 5785 5783 5780 5778 5775 5773 5770 5768 5766 5764 5761 5759 5757 5755 5753 5751 5749 5748 5746 5743 5742 5740 5738
5766 5748 5734 5728 5740 5762 5779 5791 5797 5795 5801 5809 5807 5796 5799 5819 5824 5816 5810 5805 5800 5795 5792 5790 5788 5786 5784 5782 5780 5777 5775 5772 5770 5767 5765 5762 5760 5758 5755 5753 5751 5750 5748 5746 5744 5742 5740 5738 5736
5744 5734 5718 5718 5741 5766 5782 5794 5796 5798 5802 5806 5805 5795 5794 5813 5815 5810 5808 5803 5800 5794 5790 5788 5786 5785 5783 5782 5779 5777 5774 5772 5769 5767 5764 5761 5759 5756 5754 5752 5750 5748 5746 5745 5743 5741 5739 5737 5735
5734 5723 5718 5728 5740 5756 5781 5796 5795 5797 5800 5805 5809 5791 5792 5804 5812 5810 5805 5801 5797 5793 5790 5787 5785 5784 5782 5780 5778 5776 5774 5771 5768 5766 5763 5760 5758 5755 5753 5751 5749 5747 5745 5743 5741 5739 5737 5734 5733
5741 5725 5725 5729 5738 5754 5783 5792 5800 5801 5803 5819 5816 5795 5790 5804 5812 5809 5802 5797 5793 5790 5788 5786 5784 5783 5781 5779 5777 5775 5773 5770 5768 5765 5762 5759 5757 5755 5753 5750 5748 5746 5743 5741 5739 5737 5734 5732 5730
5746 5718 5714 5729 5742 5758 5779 5781 5795 5810 5810 5816 5818 5818 5818 5816 5812 5804 5796 5790 5788 5787 5786 5785 5784 5782 5780 5778 5776 5774 5771 5769 5766 5764 5761 5759 5756 5754 5751 5749 5747 5744 5742 5739 5737 5735 5732 5730 5728
5733 5712 5723 5745 5757 5763 5773 5778 5788 5796 5796 5803 5810 5818 5820 5815 5808 5802 5795 5789 5787 5785 5785 5785 5783 5781 5779 5778 5775 5772 5770 5768 5765 5763 5760 5758 5755 5753 5750 5748 5746 5743 5740 5737 5735 5732 5730 5728 5726
5735 5727 5739 5752 5764 5767 5769 5777 5790 5788 5786 5798 5803 5808 5810 5809 5805 5801 5798 5795 5792 5790 5788 5786 5784 5782 5780 5778 5774 5771 5769 5766 5764 5762 5759 5757 5754 5751 5749 5746 5743 5740 5737 5735 5732 5729 5727 5725 5723
5737 5743 5749 5757 5767 5767 5769 5777 5784 5789 5794 5809 5814 5815 5810 5805 5803 5802 5799 5798 5795 5791 5789 5788 5786 5783 5781 5779 5774 5771 5769 5766 5763 5761 5759 5756 5753 5750 5747 5744 5741 5738 5735 5732 5729 5726 5723 5721 5720
5733 5740 5754 5761 5764 5767 5772 5775 5781 5789 5804 5811 5811 5808 5806 5806 5804 5804 5804 5801 5797 5792 5791 5789 5788 5786 5783 5779 5775 5772 5769 5767 5764 5762 5758 5755 5752 5749 5746 5742 5739 5735 5732 5729 5725 5722 5719 5717 5715
5738 5743 5751 5758 5762 5769 5769 5774 5778 5789 5802 5802 5803 5802 5805 5807 5805 5802 5801 5801 5799 5795 5792 5790 5788 5787 5784 5780 5776 5774 5771 5768 5764 5761 5758 5755 5752 5749 5745 5741 5737 5733 5729 5726 5722 5719 5715 5712 5710
5740 5736 5741 5751 5759 5766 5768 5761 5774 5792 5797 5793 5796 5799 5800 5802 5804 5805 5806 5804 5804 5801 5797 5792 5789 5787 5784 5780 5777 5774 5770 5766 5763 5760 5757 5754 5751 5747 5743 5739 5734 5731 5727 5723 5719 5716 5712 5708 5705
5728 5725 5721 5742 5757 5765 5755 5743 5774 5790 5788 5786 5791 5796 5795 5797 5802 5807 5809 5807 5805 5803 5798 5795 5791 5787 5784 5781 5777 5774 5769 5765 5761 5758 5755 5751 5748 5744 5740 5735 5731 5728 5724 5720 5716 5712 5708 5703 5700
5708 5705 5713 5730 5754 5757 5750 5746 5774 5787 5783 5782 5788 5793 5793 5793 5798 5805 5809 5810 5807 5803 5798 5794 5790 5785 5782 5779 5775 5771 5767 5763 5759 5755 5751 5747 5743 5739 5735 5730 5726 5722 5718 5715 5711 5706 5703 5698 5694
5692 5702 5710 5718 5742 5747 5742 5749 5771 5780 5781 5779 5784 5789 5790 5790 5796 5804 5807 5809 5806 5802 5797 5792 5787 5782 5777 5774 5769 5765 5761 5757 5754 5750 5746 5742 5739 5734 5730 5725 5720 5716 5712 5708 5705 5700 5696 5692 5689
5701 5703 5705 5721 5741 5739 5740 5750 5765 5774 5776 5774 5777 5781 5784 5789 5794 5798 5800 5800 5796 5792 5789 5785 5780 5777 5772 5767 5762 5756 5751 5747 5744 5741 5738 5735 5731 5727 5723 5718 5713 5709 5705 5700 5697 5693 5688 5683 5681
5699 5697 5704 5721 5739 5743 5740 5747 5761 5769 5770 5772 5773 5774 5777 5780 5784 5787 5788 5789 5787 5783 5782 5779 5775 5771 5768 5764 5758 5751 5744 5738 5734 5731 5727 5724 5721 5717 5713 5709 5705 5701 5697 5692 5689 5686 5680 5675 5672
5696 5697 5704 5713 5728 5738 5735 5732 5745 5755 5762 5764 5763 5766 5769 5773 5775 5777 5778 5779 5780 5777 5776 5774 5771 5766 5761 5756 5748 5741 5734 5728 5722 5718 5715 5711 5709 5706 5703 5699 5695 5691 5688 5683 5680 5677 5673 5667 5663
5688 5711 5715 5717 5708 5703 5718 5699 5725 5738 5742 5744 5747 5752 5756 5761 5764 5766 5768 5769 5770 5771 5771 5767 5763 5758 5752 5747 5741 5733 5725 5718 5711 5706 5702 5698 5696 5694 5690 5686 5683 5679 5676 5672 5669 5666 5664 5660 5654
5700 5717 5716 5715 5707 5699 5705 5698 5708 5726 5724 5727 5732 5737 5741 5747 5751 5753 5756 5758 5759 5758 5757 5753 5749 5745 5742 5738 5732 5725 5717 5710 5701 5694 5689 5685 5682 5680 5677 5674 5671 5667 5663 5660 5657 5654 5651 5648 5643
5713 5711 5706 5700 5688 5678 5697 5695 5694 5710 5717 5718 5720 5722 5726 5730 5734 5736 5739 5741 5742 5742 5741 5739 5734 5730 5727 5723 5720 5714 5706 5698 5690 5683 5677 5671 5668 5666 5663 5661 5657 5653 5650 5647 5643 5641 5638 5634 5630
5701 5679 5661 5665 5660 5669 5698 5693 5687 5703 5711 5710 5708 5708 5710 5714 5717 5720 5722 5724 5725 5726 5725 5723 5720 5715 5711 5708 5704 5699 5693 5686 5678 5671 5664 5660 5655 5652 5648 5645 5643 5639 5636 5633 5630 5627 5623 5619 5615
5687 5677 5654 5651 5654 5669 5691 5680 5682 5693 5696 5696 5695 5694 5695 5698 5701 5703 5705 5707 5708 5708 5707 5706 5703 5698 5696 5692 5685 5680 5675 5671 5664 5658 5653 5648 5643 5639 5635 5632 5629 5626 5622 5618 5615 5612 5608 5604 5600
5682 5676 5678 5664 5665 5661 5668 5673 5677 5684 5682 5681 5679 5678 5678 5680 5683 5686 5687 5689 5690 5689 5688 5686 5684 5681 5678 5674 5668 5664 5659 5655 5649 5644 5640 5634 5629 5624 5620 5617 5614 5610 5606 5603 5599 5595 5591 5587 5583
5687 5681 5663 5653 5645 5644 5661 5665 5666 5671 5670 5668 5666 5663 5663 5664 5666 5668 5670 5671 5672 5671 5669 5668 5667 5664 5659 5656 5652 5646 5641 5637 5632 5629 5624 5619 5614 5609 5606 5602 5598 5594 5590 5586 5582 5577 5573 5569 5565
5673 5669 5662 5651 5651 5644 5644 5652 5673 5672 5665 5659 5654 5652 5650 5651 5651 5651 5652 5654 5654 5653 5652 5650 5649 5645 5641 5637 5634 5629 5624 5620 5616 5612 5607 5602 5598 5594 5590 5586 5582 5577 5572 5568 5564 5559 5556 5551 5547
5668 5662 5654 5643 5645 5649 5643 5643 5661 5661 5656 5651 5644 5640 5638 5638 5638 5637 5637 5637 5637 5636 5634 5632 5630 5627 5624 5620 5618 5613 5608 5604 5600 5595 5591 5586 5581 5577 5573 5569 5564 5559 5553 5549 5545 5541 5537 5533 5529